TimeCDT,TemperatureF,Dew PointF,Humidity,Sea Level PressureIn,VisibilityMPH,Wind Direction,Wind SpeedMPH,Gust SpeedMPH,PrecipitationIn,Events,Conditions,WindDirDegrees,DateUTC
12:56 AM,34.0,33.1,96,29.88,6.0,Calm,Calm,-,N/A,,Clear,0,2012-10-21 05:56:00
1:56 AM,33.1,32.0,96,29.89,4.0,Calm,Calm,-,N/A,,Clear,0,2012-10-21 06:56:00
2:06 AM,33.8,33.8,100,29.87,2.5,Calm,Calm,-,N/A,,Clear,0,2012-10-21 07:06:00
2:16 AM,33.8,32.0,93,29.87,6.0,Calm,Calm,-,N/A,,Clear,0,2012-10-21 07:16:00
2:56 AM,34.0,33.1,96,29.90,10.0,Calm,Calm,-,N/A,,Clear,0,2012-10-21 07:56:00
3:56 AM,32.0,32.0,100,29.90,5.0,Calm,Calm,-,N/A,,Clear,0,2012-10-21 08:56:00
4:24 AM,32.0,30.2,93,29.88,1.8,Calm,Calm,-,N/A,,Clear,0,2012-10-21 09:24:00
4:34 AM,30.2,30.2,100,29.88,3.0,Calm,Calm,-,N/A,,Clear,0,2012-10-21 09:34:00
4:56 AM,30.9,30.0,96,29.91,3.0,North,3.5,-,N/A,,Clear,10,2012-10-21 09:56:00
5:56 AM,30.9,30.9,100,29.91,3.0,Calm,Calm,-,N/A,,Clear,0,2012-10-21 10:56:00
6:00 AM,30.2,30.2,100,29.89,1.8,Calm,Calm,-,N/A,,Clear,0,2012-10-21 11:00:00
6:11 AM,32.0,30.2,93,29.89,3.0,Calm,Calm,-,N/A,,Clear,0,2012-10-21 11:11:00
6:18 AM,32.0,30.2,93,29.89,2.0,Calm,Calm,-,N/A,,Clear,0,2012-10-21 11:18:00
6:28 AM,32.0,30.2,93,29.89,5.0,Calm,Calm,-,N/A,,Clear,0,2012-10-21 11:28:00
6:56 AM,30.0,28.9,96,29.91,3.0,Calm,Calm,-,N/A,,Clear,0,2012-10-21 11:56:00
6:59 AM,30.2,30.2,100,29.89,1.8,Calm,Calm,-,N/A,,Clear,0,2012-10-21 11:59:00
7:10 AM,30.2,30.2,100,29.89,3.0,Calm,Calm,-,N/A,,Clear,0,2012-10-21 12:10:00
7:56 AM,34.0,33.1,96,29.92,5.0,NNE,3.5,-,N/A,,Clear,20,2012-10-21 12:56:00
8:56 AM,42.1,37.9,85,29.93,10.0,Calm,Calm,-,N/A,,Clear,0,2012-10-21 13:56:00
9:56 AM,46.9,39.9,77,29.91,10.0,SSE,9.2,-,N/A,,Clear,150,2012-10-21 14:56:00
11:56 AM,57.9,44.1,60,29.90,10.0,SE,10.4,-,N/A,,Clear,140,2012-10-21 16:56:00
12:56 PM,62.1,43.0,50,29.87,10.0,SE,12.7,-,N/A,,Clear,140,2012-10-21 17:56:00
1:56 PM,62.1,42.1,48,29.86,10.0,ESE,12.7,-,N/A,,Clear,110,2012-10-21 18:56:00
2:56 PM,66.0,41.0,40,29.84,10.0,SE,13.8,21.9,N/A,,Clear,140,2012-10-21 19:56:00
3:56 PM,64.9,42.1,43,29.83,10.0,SE,11.5,18.4,N/A,,Clear,130,2012-10-21 20:56:00
5:56 PM,63.0,44.1,50,29.85,10.0,East,6.9,-,N/A,,Clear,100,2012-10-21 22:56:00
6:56 PM,57.9,43.0,58,29.86,10.0,ESE,4.6,-,N/A,,Clear,110,2012-10-21 23:56:00
7:56 PM,55.0,42.1,62,29.87,10.0,Calm,Calm,-,N/A,,Clear,0,2012-10-22 00:56:00
8:56 PM,54.0,43.0,66,29.88,10.0,Calm,Calm,-,N/A,,Clear,0,2012-10-22 01:56:00
9:56 PM,50.0,42.1,74,29.91,10.0,NE,4.6,-,N/A,,Clear,40,2012-10-22 02:56:00
11:56 PM,50.0,44.1,80,29.92,10.0,NNE,4.6,-,N/A,,Clear,30,2012-10-22 04:56:00